Regional Weather Roundup
Issued by NWS State College, PA

Home | Current Version | Previous Version | Graphics & Text | Print | Product List | Glossary Off
Versions: 1 2 3 4 5 6 7 8 9 10 11 12 13 14 15 16 17 18 19 20 21 22 23 24 25 26 27 28 29 30 31 32 33 34 35 36 37 38 39 40 41 42 43 44 45 46 47 48 49 50

000
ASUS41 KCTP 300403
RWRCTP

REGIONAL WEATHER ROUNDUP
NATIONAL WEATHER SERVICE STATE COLLEGE PA
1200 AM EDT THU MAR 30 2017

Note: "fair" indicates few or no clouds below 12,000 feet with no
significant weather and/or obstructions to visibility.

* = STATION THAT DOES NOT REPORT PRECIPITATION /E.G. RAIN...SNOW...ETC/
    THUNDER OR FOG.

PAZ002>004-007>009-013>016-020>023-029>032-300500-
WESTERN PENNSYLVANIA

CITY           SKY/WX    TMP DP  RH WIND       PRES   REMARKS
ERIE           PTCLDY    43  30  60 E7        30.16F
MEADVILLE      CLOUDY    44  26  49 E8        30.13F
FRANKLIN*      CLOUDY    43  25  49 E9        30.14F
NEW CASTLE     FAIR      46  29  51 E9        30.13F
BEAVER COUNTY  NOT AVBL
BUTLER*        PTCLDY    46  30  53 NE8       30.14F
PITTSBURGH INT MOCLDY    48  30  49 E8        30.13F
PITTSBURGH     CLEAR     48  27  44 E6        30.12F
INDIANA*       PTCLDY    48  28  46 E9G15     30.17F
LATROBE        CLEAR     41  34  75 CALM      30.14F
WASHINGTON CO* CLOUDY    41  32  70 CALM      30.14F
$$

PAZ004>006-010>012-017>019-024>028-033>037-041-042-045-046-049>053-300500-
CENTRAL PENNSYLVANIA

CITY           SKY/WX    TMP DP  RH WIND       PRES   REMARKS
BRADFORD       CLOUDY    37  27  67 E7        30.19S
DUBOIS         CLOUDY    42  26  53 NE10      30.16F
CLEARFIELD     CLOUDY    42  28  57 E10       30.19S
JOHNSTOWN      CLEAR     43  28  55 E8        30.13F
ALTOONA        CLOUDY    47  29  49 NE7       30.18S
STATE COLLEGE  CLOUDY    42  28  57 NE14G21   30.20F
WILLIAMSPORT   CLOUDY    40  25  55 E7        30.25F
SELINSGROVE    PTCLDY    41  27  57 NE10      30.25S
FT INDIANTOWN  CLOUDY    43  26  50 NE7       30.22F
CAPITAL CITY   PTCLDY    49  25  39 NE9       30.23R
HARRISBURG     CLOUDY    47  28  47 NE6       30.22S
YORK           CLEAR     44  30  57 NE5       30.20F
$$

PAZ038>040-043-044-047-048-054-055-060>062-067>071-300500-
EASTERN PENNSYLVANIA

CITY           SKY/WX    TMP DP  RH WIND       PRES   REMARKS
SCRANTON       CLEAR     37  25  61 N10       30.23F
MOUNT POCONO   CLEAR     31  22  69 N7        30.18F
ALLENTOWN      CLEAR     41  24  51 N10       30.25S
QUAKERTOWN*    CLEAR     41  25  52 NE5       30.24F
READING        CLEAR     44  27  51 NE8       30.23S
LANCASTER      CLEAR     44  30  57 NE14      30.20F
COATESVILLE    CLEAR     45  27  49 NE8       30.23R
POTTSTOWN      CLEAR     42  25  50 N7        30.25S
BLUE BELL      CLEAR     43  27  52 N5        30.23S
DOYLESTOWN     CLEAR     41  25  53 N8        30.23R
WILLOW GROVE   NOT AVBL
NORTH PHILA    CLEAR     45  26  47 NE8       30.25R
PHILADELPHIA   PTCLDY    48  25  40 N13       30.24R
$$



USA.gov is the U.S. government's official web portal to all federal, state and local government web resources and services.